UKUBE-1

Last updated on Sun Dec 14 2025 00:03:49 GMT+0000 (Coordinated Universal Time)

1 40074U 14037F 25347.24998590 .00016864 00000+0 10477-2 0 9992 2 40074 98.4141 326.6338 0003331 76.5806 283.5791 15.09750837620465
UTC large
Height (km)
Speed (km/s)
/
Latitude / Longitude
Inclination (degrees)
Orbital Period (minutes)
Azimuth
Elevation
Range (km)
Doppler Factor

Next 0 passes for location: London (51.5072 / 0.1276)

Sorry there are no passes over London.